CYGFM04 (41885 NORAD) Tracking and Keplerian Element Data

This shows tracking and keplerian element data for the satellite.

Feedback or suggestion? Click here.




ElementValue
Catalog41885
NameCYGFM04
Epoch Orbit11093
Epoch Day350.89960963
Epoch Year2018
RAAN222.6389
Inclination34.9487
Eccentricity0.0014672
Argument of Perigee196.9092
Mean Anonmoly163.1132
Mean Motion15.14775486
Decay Rate2.43E-06
L11 41885U 16078B 18350.89960963 .00000243 00000-0 14481-4 0 9996
L22 41885 34.9487 222.6389 0014672 196.9092 163.1132 15.14775486110930

Live tracking and technical data element details for CYGFM04 (NORAD 41885). CYGFM04 can be tracked NOW for your location showing map with azimuth and elevation plus other details from your city location.

Track the satellite on the map from your city or location and see movement details for azimuth, elevation, latitude, longitude, range, height, and movement on the map or in text.







IsCatalogInMostPopularTable: catalog: 41885, numindb: 126
Update: records affected: 1



GetName: 41885 CYGFM04

Hit Count: updated at: Tue, 18 Dec 2018 22:13:38 GMT